Campo, CA

5:58 PM PDT on September 16, 2019 (GMT -0700)
Campo

Weather History for KCZZ - May, 2019

Change the Weather History Date:

Wednesday, May 8, 2019

  Actual Average Record
Temperature  
Mean Temperature 52 °F 60 °F  
Max Temperature 56 °F 78 °F 93 °F (1989)
Min Temperature 48 °F 41 °F 27 °F (1965)
Degree Days  
Heating Degree Days 13 6  
Month to date heating degree days 86 52  
Since 1 July heating degree days 2804 2820  
Cooling Degree Days 0 1  
Month to date cooling degree days 0 3  
Year to date cooling degree days 2 6  
Growing Degree Days 2 (Base 50)    
Moisture  
Dew Point 48 °F    
Average Humidity 89    
Maximum Humidity 100    
Minimum Humidity 77    
Precipitation  
Precipitation 0.00 in 0.01 in 0.62 in (2015)
Month to date precipitation 0.17 0.09  
Year to date precipitation 11.36 9.95  
Sea Level Pressure  
Sea Level Pressure 29.91 in    
Wind  
Wind Speed 8 mph (SW)    
Max Wind Speed 15 mph    
Max Gust Speed 19 mph    
T = Trace of Precipitation, MM = Missing Value Source: NWS Daily Summary

Daily Weather History Graph

Daily Weather History Graph

Search for Another Location

Airport or City:

Astronomy

May. 08, 2019 Rise Set
Actual Time 5:52 AM PDT 7:32 PM PDT
Civil Twilight 5:26 AM PDT 7:59 PM PDT
Nautical Twilight 4:54 AM PDT 8:31 PM PDT
Astronomical Twilight 4:20 AM PDT 9:05 PM PDT
Moon 8:58 AM PDT (5/8) 11:31 PM PDT (5/8)
Length of Visible Light 14h 32m
Length of Day
13h 39m
Waxing Crescent, 16% of the Moon is Illuminated
May 8
Waxing Crescent
May 11
First Quarter
May 18
Full
May 26
Last Quarter
Jun 3
New

Hourly Weather History & Observations

Time (PDT) Temp. Dew Point Humidity Pressure Visibility Wind Dir Wind Speed Gust Speed Precip Events Conditions
12:52 AM 48.9 °F 46.0 °F 90% 29.96 in - West 5.8 mph - N/A   Unknown
1:52 AM 48.9 °F 46.9 °F 93% 29.96 in - SW 5.8 mph - N/A   Unknown
2:52 AM 48.9 °F 46.0 °F 90% 29.94 in - Calm Calm - N/A   Unknown
3:52 AM 50.0 °F 45.0 °F 83% 29.94 in - WSW 8.1 mph - N/A   Unknown
4:52 AM 48.9 °F 46.0 °F 90% 29.93 in - SW 6.9 mph - N/A   Unknown
5:52 AM 48.0 °F 46.0 °F 93% 29.94 in - SSW 8.1 mph - N/A   Unknown
6:52 AM 48.9 °F 48.0 °F 97% 29.94 in - SSW 4.6 mph - N/A   Unknown
7:52 AM 51.1 °F 45.0 °F 80% 29.94 in - WNW 6.9 mph - N/A   Unknown
8:52 AM 51.1 °F 46.0 °F 83% 29.94 in - WNW 9.2 mph - N/A   Unknown
9:52 AM 52.0 °F 46.0 °F 80% 29.94 in - WSW 5.8 mph - N/A   Unknown
10:52 AM 52.0 °F 46.0 °F 80% 29.94 in - SSW 9.2 mph - N/A   Unknown
11:52 AM 53.1 °F 46.9 °F 80% 29.93 in - SW 9.2 mph - N/A   Unknown
12:52 PM 54.0 °F 46.9 °F 77% 29.92 in - SSW 11.5 mph - N/A   Unknown
1:52 PM 55.9 °F 48.0 °F 75% 29.91 in - WSW 11.5 mph - N/A   Unknown
2:52 PM 55.0 °F 48.0 °F 77% 29.88 in - SSW 11.5 mph - N/A   Unknown
3:52 PM 54.0 °F 48.0 °F 80% 29.86 in - SSW 12.7 mph - N/A   Unknown
4:52 PM 55.0 °F 48.9 °F 80% 29.86 in - WSW 10.4 mph - N/A   Unknown
5:52 PM 54.0 °F 48.9 °F 83% 29.86 in - SW 8.1 mph - N/A   Unknown
6:52 PM 53.1 °F 50.0 °F 89% 29.86 in - SW 8.1 mph - N/A   Unknown
7:52 PM 52.0 °F 50.0 °F 93% 29.85 in - WSW 6.9 mph - N/A   Unknown
8:52 PM 52.0 °F 50.0 °F 93% 29.86 in - SW 4.6 mph - N/A   Unknown
9:52 PM 52.0 °F 48.9 °F 89% 29.86 in - SW 5.8 mph - N/A   Unknown
10:52 PM 52.0 °F 50.0 °F 93% 29.86 in - SSW 3.5 mph - N/A   Unknown
11:52 PM 52.0 °F 50.0 °F 93% 29.85 in - Calm Calm - N/A   Unknown